TimeMST,TemperatureF,Dew PointF,Humidity,Sea Level PressureIn,VisibilityMPH,Wind Direction,Wind SpeedMPH,Gust SpeedMPH,PrecipitationIn,Events,Conditions,WindDirDegrees,DateUTC
12:53 AM,25.0,15.1,66,30.34,10.0,SSW,4.6,-,N/A,,Clear,200,2013-01-18 07:53:00
1:53 AM,21.9,15.1,75,30.34,10.0,WSW,5.8,-,N/A,,Clear,250,2013-01-18 08:53:00
2:53 AM,19.9,15.1,81,30.32,10.0,East,11.5,-,N/A,,Clear,100,2013-01-18 09:53:00
3:53 AM,24.1,16.0,71,30.29,10.0,Variable,3.5,-,N/A,,Clear,0,2013-01-18 10:53:00
4:53 AM,23.0,16.0,74,30.29,10.0,Variable,3.5,-,N/A,,Clear,0,2013-01-18 11:53:00
5:53 AM,19.9,15.1,81,30.31,10.0,Calm,Calm,-,N/A,,Clear,0,2013-01-18 12:53:00
6:53 AM,23.0,15.1,72,30.30,10.0,NE,3.5,-,N/A,,Clear,40,2013-01-18 13:53:00
7:53 AM,26.1,15.1,63,30.28,10.0,ESE,3.5,-,N/A,,Clear,120,2013-01-18 14:53:00
8:53 AM,21.0,12.9,71,30.30,10.0,Variable,5.8,-,N/A,,Clear,0,2013-01-18 15:53:00
9:53 AM,23.0,15.1,72,30.29,10.0,SSW,5.8,-,N/A,,Clear,200,2013-01-18 16:53:00
10:53 AM,23.0,16.0,74,30.28,10.0,SE,3.5,-,N/A,,Clear,130,2013-01-18 17:53:00
11:53 AM,28.0,18.0,66,30.25,10.0,West,5.8,-,N/A,,Clear,270,2013-01-18 18:53:00
12:53 PM,30.0,18.0,61,30.19,10.0,Calm,Calm,-,N/A,,Clear,0,2013-01-18 19:53:00
1:53 PM,35.1,21.9,59,30.16,10.0,NW,4.6,-,N/A,,Clear,310,2013-01-18 20:53:00
2:53 PM,37.0,23.0,57,30.16,10.0,ENE,3.5,-,N/A,,Clear,60,2013-01-18 21:53:00
3:35 PM,48.2,15.8,27,30.00,10.0,WNW,10.4,-,N/A,,Clear,290,2013-01-18 22:35:00
3:53 PM,46.9,16.0,29,30.11,10.0,WNW,6.9,-,N/A,,Clear,290,2013-01-18 22:53:00
4:53 PM,46.9,15.1,28,30.12,10.0,West,15.0,24.2,N/A,,Clear,280,2013-01-18 23:53:00
5:53 PM,45.0,14.0,29,30.15,10.0,West,9.2,-,N/A,,Scattered Clouds,270,2013-01-19 00:53:00
6:53 PM,44.1,15.1,31,30.17,10.0,West,13.8,-,N/A,,Scattered Clouds,280,2013-01-19 01:53:00
7:41 PM,42.8,14.0,31,30.06,10.0,West,6.9,-,N/A,,Clear,280,2013-01-19 02:41:00
7:53 PM,44.1,12.0,27,30.20,10.0,West,9.2,19.6,N/A,,Clear,260,2013-01-19 02:53:00
8:53 PM,43.0,14.0,31,30.21,10.0,West,17.3,28.8,N/A,,Clear,270,2013-01-19 03:53:00
9:53 PM,43.0,12.0,28,30.24,10.0,NNW,8.1,17.3,N/A,,Clear,330,2013-01-19 04:53:00
10:53 PM,44.6,10.4,25,30.11,10.0,SSW,4.6,-,N/A,,Clear,210,2013-01-19 05:53:00
11:53 PM,39.9,12.9,33,30.25,10.0,West,13.8,-,N/A,,Clear,260,2013-01-19 06:53:00